FW2726 Weather Reports


time (UTC)temp
F
wind
direction
speed
knots
gust
knots
rain 1hr
in
rain 24hr
in
rain mn
in
humidity
%
barometer
mb
20260503200105 62 347 20.9 30.4 0.00 0.00 0.00 30 1002.9
20260503194557 62 337 19.1 27.8 0.00 0.00 0.00 33 1002.8
20260503193112 62 346 21.7 31.3 0.00 0.00 0.00 32 1002.7
20260503191644 63 359 21.7 30.4 0.00 0.00 0.00 29 1002.8
20260503184611 66 347 18.2 29.5 0.00 0.00 0.00 29 1002.6
20260503183110 66 359 23.5 32.2 0.00 0.00 0.00 29 1002.6
20260503181612 67 344 17.4 29.5 0.00 0.00 0.00 30 1002.6
20260503174603 66 334 16.5 26.9 0.00 0.00 0.00 32 1002.9
20260503173103 67 337 19.1 26.9 0.00 0.00 0.00 31 1003.1
20260503171558 68 351 19.1 26.1 0.00 0.00 0.00 29 1003.1
20260503160104 64 308 16.5 21.7 0.00 0.00 0.00 35 1003.8
20260503090105 42 252 8.7 11.3 0.00 0.00 0.00 66 1006.8
20260503081630 43 242 8.7 11.3 0.00 0.00 0.00 63 1007.5
20260503080117 42 236 6.1 9.6 0.00 0.00 0.00 64 1007.6
20260503071601 43 220 7.8 12.2 0.00 0.00 0.00 61 1008.3
20260503070107 42 222 8.7 13.0 0.00 0.00 0.00 63 1008.4
20260503060104 42 223 6.1 8.7 0.00 0.00 0.00 62 1009.3
20260503054605 42 224 5.2 7.0 0.00 0.00 0.00 62 1009.4
20260503053100 42 224 5.2 7.8 0.00 0.00 0.00 62 1009.5
20260503051558 42 227 4.3 7.0 0.00 0.00 0.00 60 1009.7
20260503050101 43 224 4.3 6.1 0.00 0.00 0.00 58 1009.8
20260503044613 43 216 3.5 5.2 0.00 0.00 0.00 58 1010.0
20260503043111 46 202 4.3 5.2 0.00 0.00 0.00 52 1010.2
20260503041601 47 226 4.3 6.1 0.00 0.00 0.00 50 1010.3
20260503034600 49 241 4.3 6.1 0.00 0.00 0.00 47 1010.7
20260503033136 50 228 4.3 5.2 0.00 0.00 0.00 47 1010.6
20260503031602 51 227 3.5 4.3 0.00 0.00 0.00 44 1010.6
20260503030113 53 227 3.5 4.3 0.00 0.00 0.00 44 1010.7
20260503024624 55 259 1.7 2.6 0.00 0.00 0.00 40 1010.6
20260503023107 57 259 1.7 3.5 0.00 0.00 0.00 37 1010.5
20260503021605 61 299 1.7 4.3 0.00 0.00 0.00 33 1010.6
20260503020100 64 293 3.5 7.0 0.00 0.00 0.00 30 1010.7
20260503014605 65 310 3.5 6.1 0.00 0.00 0.00 29 1010.7
20260503013100 66 299 5.2 7.8 0.00 0.00 0.00 28 1010.9
20260503011605 67 299 6.1 10.4 0.00 0.00 0.00 27 1011.0
20260503004601 67 332 6.1 13.9 0.00 0.00 0.00 26 1011.3
20260503003101 67 301 7.8 14.8 0.00 0.00 0.00 25 1011.4
20260503001603 67 296 6.1 15.6 0.00 0.00 0.00 25 1011.5
20260503000108 67 268 5.2 12.2 0.00 0.00 0.00 26 1011.8
20260502234617 67 337 7.8 12.2 0.00 0.00 0.00 26 1012.0
20260502233110 68 316 8.7 14.8 0.00 0.00 0.00 26 1012.2
20260502231612 68 297 7.8 13.9 0.00 0.00 0.00 26 1012.4
20260502230101 68 313 9.6 14.8 0.00 0.00 0.00 28 1012.5
20260502224600 68 311 6.1 13.9 0.00 0.00 0.00 28 1012.8
20260502223058 67 341 7.8 13.9 0.00 0.00 0.00 28 1013.0
20260502221605 67 325 10.4 16.5 0.00 0.00 0.00 27 1013.1
20260502220106 67 311 8.7 16.5 0.00 0.00 0.00 27 1013.2
20260502214609 67 316 4.3 13.9 0.00 0.00 0.00 28 1013.3
20260502213059 67 314 7.8 15.6 0.00 0.00 0.00 28 1013.4
20260502211607 67 325 9.6 19.1 0.00 0.00 0.00 29 1013.5
20260502210109 66 314 8.7 16.5 0.00 0.00 0.00 30 1013.5
20260502204558 66 52 10.4 17.4 0.00 0.00 0.00 28 1013.7
20260502203110 66 31 11.3 19.1 0.00 0.00 0.00 31 1014.0
20260502201600 65 340 7.8 14.8 0.00 0.00 0.00 29 1014.2